sat.trackr.live / text

‹ back to catalog

ONEWEB-0088

NORAD 45457 · 2020-020AK

PAYLOAD ACTIVE UNKNOWN

§ Identity

Operator
Country
UK
Launch date
2020-03-21
Launch site
TYMSC
Launch vehicle
Mass (kg)
RCS (m²)

Purposes: comms

External: N2YO · Heavens-Above · Gunter

§ Orbital elements

Epoch: 2026-05-25T02:06:53.074656Z

Period
109.80 min
Inclination
87.8928°
Eccentricity
0.0002162
Mean motion
13.11417865 rev/d
Perigee alt
1,216.0 km
Apogee alt
1,219.3 km
Semi-major
7,595.8 km
B*
-1.0619e-3
RAAN
25.6268°
Arg perigee
88.0553°
Mean anomaly
272.0823°
Rev number
29,951

§ Raw data

ONEWEB-00881 45457U 20020AK  26145.08811429 -.00000364  00000+0 -10619-2 0  99932 45457  87.8928  25.6268 0002162  88.0553 272.0823 13.11417865299515

JSON: /api/v1/satellites/45457 · /tle

For live sub-satellite position, see the globe view (requires WebGL).

§ Visibility from observer

Set your observer location to see the next 7 days of passes ≥ 10°. The values pass through the URL so the page stays shareable.

No JS? Fill the form by hand. The geolocation button needs JavaScript.